Volver al catálogo

FENGYUN 1C DEB

ActivoPO
NORAD 30201·DEBRIS·🇨🇳 China

Lanzado May 10, 1999 desde Taiyuan Satellite Launch Center

Loading…

Próximos Pases (próximas 24 horas)

TLE

ActualizadoSource: Space-Track

Época: Sep 14, 2026, 09:17 UTC

1 30201U 99025VJ  26257.38701778  .00000526  00000-0  25295-3 0  9993
2 30201  99.4364  55.7055 0028405 250.3298 109.4812 14.23432177 17375

Sigue FENGYUN 1C DEB en tiempo real con AllMySat

Download on the App Store